This demonstration page uses our WeatherBlox Daily Observations layout. Learn more.

Left ArrowRight Arrow

39.51506, -84.39828

Hourly Observations for June 20, 2020

Temp ( °F °C ) Dew Point ( °F °C ) Humidity (%) Winds ( mph kmh ) Pressure ( in mb ) Visibility ( mi km ) Precip ( " mm )
12:15 am 00:15 Clear 68 19.9 65 18.6 92 92 Calm 30.03 1017 10 16.0934 0 0
12:35 am 00:35 Clear 67 19.3 65 18.3 94 94 Calm 30.04 1017 7 11.26538 0 0
12:55 am 00:55 Clear 66 19 64 18 94 94 Calm 30.03 1017 10 16.0934 0 0
1:15 am 01:15 Clear 65 18.5 64 17.7 95 95 Calm 30.03 1017 10 16.0934 0 0
1:35 am 01:35 Clear 65 18.3 64 17.5 95 95 Calm 30.03 1017 10 16.0934 0 0
1:55 am 01:55 Clear 64 17.9 63 17.4 97 97 Calm 30.02 1017 10 16.0934 0 0
2:15 am 02:15 Clear 64 17.6 63 17.1 97 97 Calm 30.02 1017 10 16.0934 0 0
2:35 am 02:35 Clear 64 17.8 63 17 95 95 Calm 30.01 1016 10 16.0934 0 0
2:55 am 02:55 Clear 64 17.8 63 17 95 95 Calm 30.01 1016 10 16.0934 0 0
3:15 am 03:15 Clear 63 17.2 62 16.8 98 98 Calm 30.01 1016 10 16.0934 0 0
3:35 am 03:35 Clear 62 16.6 62 16.4 99 99 Calm 30.02 1017 10 16.0934 0 0
3:55 am 03:55 Clear 63 17.1 62 16.9 99 99 Calm 30.02 1017 10 16.0934 0 0
4:15 am 04:15 Clear 62 16.4 61 16.2 99 99 Calm 30.02 1017 10 16.0934 0 0
4:35 am 04:35 Clear with Mist and Fog 61 16 61 16 100 100 Calm 30.02 1017 2.5 4.02335 0 0
4:55 am 04:55 Clear 61 16.1 61 16.1 100 100 Calm 30.03 1017 10 16.0934 0 0
5:15 am 05:15 Clear 60 15.8 60 15.6 99 99 Calm 30.04 1017 10 16.0934 0 0
5:35 am 05:35 Clear 61 16.2 61 16.1 99 99 Calm 30.04 1017 10 16.0934 0 0
5:55 am 05:55 Clear 61 16 59 15 94 94 Calm 30.04 1017 7 11.26538 0 0
6:15 am 06:15 Sunny 60 15.8 60 15.8 100 100 Calm 30.05 1018 10 16.0934 0 0
6:35 am 06:35 Sunny 60 15.5 60 15.5 100 100 Calm 30.06 1018 7 11.26538 0 0
6:55 am 06:55 Sunny with Mist and Fog 60 15.8 60 15.8 100 100 Calm 30.05 1018 7 11.26538 0 0
7:15 am 07:15 Sunny 63 17 62 16.9 99 99 Calm 30.05 1018 10 16.0934 0 0
7:35 am 07:35 Sunny 65 18.2 64 17.9 98 98 Calm 30.05 1018 10 16.0934 0 0
7:55 am 07:55 Sunny 67 19.2 65 18.2 94 94 Calm 30.05 1017 10 16.0934 0 0
8:15 am 08:15 Sunny 69 20.4 65 18.4 88 88 Calm 30.05 1018 10 16.0934 0 0
8:35 am 08:35 Sunny 70 21.3 66 18.8 86 86 Calm 30.05 1018 10 16.0934 0 0
8:55 am 08:55 Sunny 73 22.6 66 19 80 80 Calm 30.05 1018 10 16.0934 0 0
9:15 am 09:15 Sunny 75 23.8 67 19.2 76 76 Calm 30.05 1017 10 16.0934 0 0
9:35 am 09:35 Sunny 77 24.8 67 19.7 73 73 Calm 30.04 1017 10 16.0934 0 0
9:55 am 09:55 Sunny 78 25.7 68 19.9 70 70 SSW 3 6 30.04 1017 10 16.0934 0 0
10:15 am 10:15 Sunny 80 26.9 68 19.9 66 66 Calm 30.03 1017 10 16.0934 0 0
10:35 am 10:35 Sunny 82 27.9 68 20.1 63 63 Calm 30.02 1016 10 16.0934 0 0
10:55 am 10:55 Sunny 83 28.4 68 19.9 60 60 Calm 30.02 1016 7 11.26538 0 0
11:15 am 11:15 Sunny 85 29.5 70 20.9 60 60 Calm 30.01 1016 10 16.0934 0 0
11:35 am 11:35 Sunny 85 29.7 67 19.5 54 54 Calm 30.01 1016 10 16.0934 0 0
11:55 am 11:55 Sunny 87 30.4 66 18.7 50 50 WNW 5 7 30.01 1016 10 16.0934 0 0
12:15 pm 12:15 Sunny 87 30.5 64 18 47 47 NW 3 6 30.01 1016 10 16.0934 0 0
12:35 pm 12:35 Partly Cloudy 86 30.2 64 17.9 48 48 Calm 30 1016 10 16.0934 0 0
12:55 pm 12:55 Mostly Cloudy 88 31 65 18.3 47 47 SW 5 7 30 1016 10 16.0934 0 0
1:15 pm 13:15 Cloudy 85 29.6 65 18.1 50 50 Calm 30 1016 10 16.0934 0 0
1:35 pm 13:35 Partly Cloudy 87 30.8 65 18.5 48 48 WNW 5 7 29.99 1016 10 16.0934 0 0
1:55 pm 13:55 Sunny 89 31.8 63 17.4 42 42 WNW 6 9 29.99 1016 10 16.0934 0 0
2:15 pm 14:15 Sunny 90 32.2 63 17.1 40 40 SW 6 9 29.97 1015 10 16.0934 0 0
2:35 pm 14:35 Partly Cloudy 88 31.1 63 17.3 44 44 WNW 5 7 29.97 1015 10 16.0934 0 0
2:55 pm 14:55 Partly Cloudy 90 32.1 62 16.8 40 40 Calm 29.96 1014 10 16.0934 0 0
3:15 pm 15:15 Partly Cloudy 89 31.7 64 18 44 44 NW 5 7 29.96 1014 10 16.0934 0 0
3:35 pm 15:35 Sunny 90 32 62 16.6 40 40 WNW 3 6 29.95 1014 10 16.0934 0 0
3:55 pm 15:55 Sunny 90 32.1 61 16 38 38 Calm 29.94 1014 10 16.0934 0 0
4:15 pm 16:15 Sunny 91 32.5 63 17 39 39 W 5 7 29.94 1014 10 16.0934 0 0
4:35 pm 16:35 Mostly Cloudy 89 31.9 63 17.2 41 41 WSW 6 9 29.93 1013 10 16.0934 0 0
4:55 pm 16:55 Partly Cloudy 90 32.3 64 17.9 42 42 WSW 8 13 29.93 1013 10 16.0934 0 0
5:15 pm 17:15 Sunny 90 32.2 63 17.4 41 41 W 8 13 29.92 1013 10 16.0934 0 0
5:35 pm 17:35 Sunny 90 32.2 64 17.7 42 42 SSW 5 7 29.91 1013 10 16.0934 0 0
5:55 pm 17:55 Sunny 90 32.2 64 17.5 41 41 WSW 7 11 29.9 1012 10 16.0934 0 0
6:15 pm 18:15 Sunny 90 32.1 64 17.6 42 42 SW 8 13 29.9 1012 10 16.0934 0 0
6:35 pm 18:35 Sunny 89 31.8 62 16.5 40 40 WSW 5 7 29.9 1012 10 16.0934 0 0
6:55 pm 18:55 Sunny 89 31.6 63 17.1 42 42 WSW 6 9 29.89 1012 10 16.0934 0 0
7:15 pm 19:15 Sunny 88 31.3 63 17.1 43 43 WSW 5 7 29.89 1012 7 11.26538 0 0
7:35 pm 19:35 Sunny 88 31.1 64 17.5 44 44 W 5 7 29.89 1012 10 16.0934 0 0
7:55 pm 19:55 Sunny 85 29.3 65 18.6 53 53 Calm 29.89 1012 10 16.0934 0 0
8:15 pm 20:15 Sunny 82 27.9 71 21.5 68 68 Calm 29.9 1012 10 16.0934 0 0
8:35 pm 20:35 Sunny 80 26.5 70 21.3 73 73 Calm 29.9 1013 10 16.0934 0 0
8:55 pm 20:55 Mostly Cloudy 78 25.7 70 21.1 76 76 Calm 29.91 1013 10 16.0934 0 0
9:15 pm 21:15 Partly Cloudy 77 25 70 21.1 79 79 Calm 29.91 1013 10 16.0934 0 0
9:35 pm 21:35 Partly Cloudy 76 24.5 70 21.2 82 82 Calm 29.91 1013 10 16.0934 0 0
9:55 pm 21:55 Clear 75 23.7 69 20.7 83 83 Calm 29.93 1013 10 16.0934 0 0
10:15 pm 22:15 Clear 73 22.9 68 20 84 84 Calm 29.93 1013 10 16.0934 0 0
10:35 pm 22:35 Clear 71 21.8 67 19.5 87 87 Calm 29.94 1014 10 16.0934 0 0
10:55 pm 22:55 Clear 70 21.3 67 19.2 88 88 Calm 29.94 1014 10 16.0934 0 0
11:15 pm 23:15 Clear 70 21.1 67 19.2 89 89 Calm 29.95 1014 10 16.0934 0 0
11:35 pm 23:35 Clear 70 21.1 66 19.1 88 88 Calm 29.95 1014 10 16.0934 0 0
11:55 pm 23:55 Clear 69 20.6 67 19.2 92 92 Calm 29.95 1014 10 16.0934 0 0

Powered by AerisWeather